WET,Max TemperatureF,Mean TemperatureF,Min TemperatureF,Max Dew PointF,MeanDew PointF,Min DewpointF,Max Humidity, Mean Humidity, Min Humidity, Max Sea Level PressureIn, Mean Sea Level PressureIn, Min Sea Level PressureIn, Max VisibilityMiles, Mean VisibilityMiles, Min VisibilityMiles, Max Wind SpeedMPH, Mean Wind SpeedMPH, Max Gust SpeedMPH,PrecipitationIn, CloudCover, Events, WindDirDegrees
2012-9-1,108,86,64,57,51,39,57,31,5,30.01,29.93,29.73,6,6,4,20,4,31,0.00,1,,323
2012-9-2,105,88,72,55,50,44,50,26,8,30.04,29.96,29.81,6,5,4,12,3,,0.00,1,,316
2012-9-3,101,84,66,61,53,36,68,38,5,30.04,29.96,29.80,6,6,5,13,5,,0.00,1,,267
2012-9-4,96,80,64,66,59,48,100,58,15,29.98,29.92,29.78,6,5,1,14,8,,0.00,2,,275
2012-9-5,91,76,62,63,56,48,88,52,18,30.01,29.93,29.80,6,6,4,16,8,,0.00,1,,279
2012-9-6,90,76,63,64,57,50,88,56,18,30.09,29.99,29.88,6,6,6,13,7,,0.00,2,,284
2012-9-7,96,79,62,63,55,45,77,47,10,30.18,30.10,29.97,6,6,6,16,4,,0.00,1,,297
2012-9-8,93,78,64,57,50,39,68,39,11,30.18,30.15,30.03,6,6,6,15,5,,0.00,1,,270
2012-9-9,90,76,61,64,57,45,94,57,15,30.18,30.11,29.96,6,5,3,12,7,,0.00,3,,268
2012-9-10,92,78,64,63,57,50,88,52,16,30.12,30.07,29.93,6,6,5,13,4,25,0.00,2,,340
2012-9-11,95,79,63,61,58,52,78,49,17,30.09,30.03,29.87,6,6,6,10,4,,0.00,1,,25
2012-9-12,98,82,65,63,59,55,78,48,17,30.15,30.07,29.93,6,6,6,14,3,16,0.00,3,,295
2012-9-13,98,82,66,63,59,50,83,46,12,30.12,30.04,29.85,6,6,6,13,2,,0.00,3,,17
2012-9-14,101,84,66,61,55,45,73,41,9,30.04,29.96,29.79,6,6,6,9,2,,0.00,1,,327
2012-9-15,100,83,66,63,58,45,78,45,12,30.01,29.95,29.78,6,6,6,13,3,21,0.00,,,292
2012-9-16,101,84,66,65,58,46,88,47,11,30.04,29.99,29.83,6,6,5,9,5,,0.00,1,,307
2012-9-17,104,88,72,63,56,50,65,37,10,30.04,29.96,29.79,6,6,6,15,5,22,0.00,2,,262
2012-9-18,96,82,68,66,61,54,83,53,22,30.09,30.02,29.90,6,6,5,16,7,,0.00,4,,270
2012-9-19,91,78,66,67,63,55,94,61,24,30.06,30.01,29.87,6,6,6,12,6,,0.00,3,,271
2012-9-20,93,80,66,67,64,57,94,65,25,30.01,29.96,29.81,6,6,5,12,6,,0.00,3,,279
2012-9-21,97,81,65,66,63,56,88,58,21,30.01,29.98,29.84,6,6,6,13,5,,0.00,1,,259
2012-9-22,103,85,67,63,50,39,73,32,7,30.06,29.98,29.81,6,6,6,18,8,,0.00,2,,292
2012-9-23,101,84,66,59,49,43,54,30,12,30.24,30.06,29.89,6,6,2,23,5,,0.01,5,Rain,260
2012-9-24,85,76,67,68,64,57,94,79,45,30.24,30.12,30.04,6,6,3,13,4,,0.16,6,Rain,157
2012-9-25,90,77,64,68,64,57,100,70,26,30.09,30.00,29.82,6,6,5,10,2,,0.00,2,,32
2012-9-26,88,76,63,64,61,59,88,61,39,29.95,29.90,29.80,6,6,3,17,6,24,0.00,3,,265
2012-9-27,81,72,62,66,63,61,100,81,51,29.98,29.90,29.79,6,6,3,24,6,,0.39,4,Rain,244
2012-9-28,73,66,58,63,58,55,100,79,47,30.12,30.03,29.94,6,6,6,23,10,,0.00,4,Rain,264
2012-9-29,77,68,59,61,57,55,100,70,31,30.18,30.12,30.05,6,6,6,14,7,,0.00,4,,263
2012-9-30,80,70,61,61,59,57,100,70,39,30.15,30.10,30.00,6,6,6,8,2,,0.00,5,,55